Torna al catalogo

DELTA 1 DEB

AttivoSSO
NORAD 26701·DEBRIS·🇺🇸 United States

Lanciato Jun 12, 1975 da Vandenberg Space Force Base

Loading…

Prossimi Passaggi (prossime 24 ore)

TLE

AggiornatoSource: Space-Track

Epoca: Sep 14, 2026, 02:49 UTC

1 26701U 75052KB  26257.11780983  .00000394  00000-0  50849-3 0  9999
2 26701  99.7469 126.2706 0259472  44.7109 105.1389 13.55467029274181

Traccia DELTA 1 DEB in tempo reale con AllMySat

Download on the App Store